FW4540 Weather Reports


Display with metric or nautical units.
time (UTC)temp
F
wind
direction
speed
MPH
gust
MPH
rain 1hr
in
rain 24hr
in
rain mn
in
humidity
%
barometer
mb
20260505202003 55 157 1.0 4.0 0.00 0.30 0.30 96 9.2
20260505201004 55 135 3.0 5.0 0.00 0.30 0.30 96 9.0
20260505200003 55 0 0.0 0.0 0.00 0.30 0.30 96 8.9
20260505195004 55 0 0.0 0.0 0.00 0.30 0.30 96 8.9
20260505194003 55 0 0.0 0.0 0.00 0.30 0.30 96 8.9
20260505193003 55 0 0.0 0.0 0.00 0.30 0.30 95 8.7
20260505192003 56 0 0.0 0.0 0.00 0.30 0.30 95 8.6
20260505191003 56 0 0.0 0.0 0.00 0.30 0.30 94 8.4
20260505190004 57 0 0.0 0.0 0.00 0.30 0.30 92 8.4
20260505185003 57 0 0.0 0.0 0.00 0.30 0.30 91 8.4
20260505184003 57 157 0.0 2.0 0.00 0.30 0.30 92 8.3
20260505183003 58 157 2.0 5.0 0.00 0.30 0.30 92 8.2
20260505182003 58 157 3.0 6.0 0.00 0.30 0.30 91 8.3
20260505181003 59 157 3.0 6.0 0.00 0.30 0.30 91 8.3
20260505180003 59 157 2.0 7.0 0.00 0.30 0.30 90 8.3
20260505174003 59 157 3.0 5.0 0.00 0.30 0.30 93 8.3
20260505173003 59 157 1.0 4.0 0.00 0.30 0.30 94 8.4
20260505172003 58 157 1.0 4.0 0.00 0.30 0.30 93 8.4
20260505171003 58 157 1.0 5.0 0.00 0.30 0.30 93 8.4
20260505170004 58 157 4.0 7.0 0.00 0.30 0.30 94 8.4
20260505165003 58 157 3.0 6.0 0.00 0.30 0.30 94 8.5
20260505164003 58 157 4.0 6.0 0.00 0.30 0.30 94 8.8
20260505163003 59 135 5.0 9.0 0.00 0.30 0.30 94 8.8
20260505162003 58 135 6.0 10.0 0.00 0.30 0.30 96 8.8
20260505161003 58 157 6.0 9.0 0.02 0.30 0.30 95 8.8
20260505153003 56 157 5.0 10.0 0.04 0.30 0.30 97 9.0
20260505152003 55 157 5.0 10.0 0.05 0.30 0.30 97 9.1
20260505151003 55 180 2.0 6.0 0.03 0.28 0.28 96 9.2
20260505125002 59 225 6.0 13.0 0.00 0.23 0.23 92 8.7
20260505124002 60 202 1.0 5.0 0.00 0.23 0.23 91 8.4
20260505123002 62 157 3.0 7.0 0.00 0.23 0.23 85 8.4
20260505121003 62 157 5.0 11.0 0.00 0.23 0.23 87 8.4
20260505120003 62 157 4.0 9.0 0.00 0.23 0.23 88 8.5
20260505115002 62 157 3.0 9.0 0.00 0.23 0.23 87 8.6
20260505114002 61 157 7.0 15.0 0.00 0.23 0.23 92 8.7
20260505113002 60 157 6.0 12.0 0.00 0.23 0.23 94 8.9
20260505111002 60 157 4.0 12.0 0.00 0.23 0.23 90 9.0
20260505100002 58 202 2.0 6.0 0.00 0.23 0.23 94 9.1
20260505095002 58 180 3.0 7.0 0.00 0.23 0.23 93 9.1
20260505094002 58 157 3.0 8.0 0.00 0.23 0.23 94 9.1
20260505092002 58 157 4.0 9.0 0.00 0.23 0.23 95 9.1
20260505085028 56 157 3.0 9.0 0.00 0.23 0.23 95 9.1
20260505084028 56 202 2.0 6.0 0.00 0.23 0.23 96 9.2
20260505082028 56 180 2.0 6.0 0.00 0.23 0.23 96 9.1
20260505081028 56 157 1.0 5.0 0.00 0.23 0.23 96 9.2
20260505080028 56 157 1.0 5.0 0.00 0.23 0.23 97 9.1
20260505074028 56 180 1.0 4.0 0.01 0.23 0.23 97 9.0
20260505073028 55 157 0.0 3.0 0.01 0.23 0.23 97 9.1
20260505072027 55 180 0.0 2.0 0.01 0.23 0.23 98 9.1
20260505071028 55 0 0.0 0.0 0.01 0.23 0.23 98 9.2
20260505070028 55 0 0.0 0.0 0.01 0.23 0.23 98 9.2
20260505064028 54 0 0.0 0.0 0.00 0.22 0.22 99 9.2
20260505063028 54 292 0.0 1.0 0.00 0.22 0.22 99 9.3
20260505061027 54 0 0.0 0.0 0.00 0.22 0.22 99 9.3
20260505060028 54 0 0.0 0.0 0.00 0.22 0.22 99 9.3
20260505055027 54 0 0.0 0.0 0.01 0.22 0.22 99 9.3
20260505054028 53 0 0.0 0.0 0.01 0.22 0.22 99 9.4
20260505053028 53 0 0.0 0.0 0.01 0.22 0.22 99 9.5
20260505052028 53 0 0.0 0.0 0.02 0.22 0.22 99 9.4
20260505051027 53 0 0.0 0.0 0.02 0.22 0.22 99 9.4
20260505041027 54 112 2.0 3.0 0.02 0.20 0.20 99 9.7
20260505040028 54 90 2.0 3.0 0.02 0.20 0.20 99 9.9
20260505035027 54 112 3.0 4.0 0.01 0.20 0.20 99 9.9
20260505034027 54 90 3.0 6.0 0.01 0.20 0.20 99 10.0
20260505033027 54 112 2.0 3.0 0.01 0.19 0.19 98 10.1
20260505032027 54 112 1.0 3.0 0.01 0.19 0.19 98 10.2
20260505031027 54 112 1.0 4.0 0.02 0.19 0.19 98 10.3
20260505030027 54 135 1.0 3.0 0.03 0.19 0.19 98 10.4
20260505025027 54 112 2.0 3.0 0.06 0.19 0.19 98 10.4
20260505024027 54 135 3.0 5.0 0.07 0.19 0.19 99 10.6
20260505023027 54 135 2.0 4.0 0.08 0.18 0.18 98 10.7
20260505022027 54 112 3.0 7.0 0.09 0.18 0.18 99 10.7
20260505021027 54 112 3.0 5.0 0.09 0.17 0.17 99 10.8
20260505020027 54 135 3.0 6.0 0.09 0.16 0.16 99 10.8
20260505015027 54 112 3.0 6.0 0.07 0.13 0.13 99 10.9
20260505014027 54 112 3.0 6.0 0.06 0.12 0.12 98 10.9
20260505013027 54 112 3.0 4.0 0.06 0.10 0.10 98 11.0
20260505012027 54 112 2.0 4.0 0.05 0.09 0.09 98 11.0
20260505011027 54 135 2.0 4.0 0.05 0.08 0.08 98 11.1
20260505005027 54 135 2.0 4.0 0.05 0.06 0.06 98 11.3
20260505004027 54 135 2.0 4.0 0.05 0.06 0.06 98 11.4
20260505003027 54 135 1.0 3.0 0.05 0.05 0.05 98 11.6
20260505002027 54 135 0.0 1.0 0.04 0.04 0.04 98 11.6
20260504235027 54 135 0.0 3.0 0.02 0.02 0.02 98 11.8
20260504233027 54 135 0.0 1.0 0.00 0.00 0.00 98 11.9
20260504232027 53 0 0.0 0.0 0.00 0.00 0.00 98 11.8
20260504230027 53 0 0.0 0.0 0.00 0.00 0.00 99 11.8
20260504224027 52 0 0.0 0.0 0.00 0.00 0.00 98 11.9
20260504222027 52 0 0.0 0.0 0.00 0.00 0.00 98 11.7
20260504221027 52 0 0.0 0.0 0.00 0.00 0.00 98 11.8
20260504220027 52 0 0.0 0.0 0.00 0.25 0.25 98 11.8
20260504215027 52 0 0.0 0.0 0.00 0.25 0.25 98 12.0
20260504214027 51 0 0.0 0.0 0.00 0.25 0.25 97 12.0
20260504213027 52 0 0.0 0.0 0.00 0.25 0.25 97 12.0
20260504211027 52 0 0.0 0.0 0.00 0.25 0.25 97 12.0
20260504210027 53 0 0.0 0.0 0.00 0.25 0.25 97 12.1